Location: Marcé
(47.5801°N, 0.3280°W)
Time: 20:57:10
(UTC+01:00)

Vanguard 1 - Pass Details

Date: 02 December 2021
Orbit: 652 x 3830 km, 34.2° (Epoch: 16 January)

Event Time Altitude Azimuth Distance (km) Brightness Sun altitude
Rises 22:47:20 0° 196° (SSW) 6,929 14.3 -54.5°
Enters shadow 22:49:25 - 192° (SSW) 6,674 14.1 -54.8°
Reaches altitude 10° 22:52:52 10° 185° (S) 6,301 - -55.2°
Maximum altitude 23:08:46 27° 137° (SE) 5,564 - -57.3°
Drops below altitude 10° 23:25:23 10° 91° (E) 6,678 - -59.3°
Exits shadow 23:31:09 - 81° (E) 7,384 14.4 -59.9°
Sets 23:31:21 0° 81° (E) 7,411 14.4 -59.9°
